Theta_e
305 307 306 308 318 320 321 325 326 323 332 332 322 333 337 345 347 345 342 346 351 358 358 356 355 355 354 354 354 353 353 353
303 305 315 315 317 319 322 325 326 330 326 332 331 332 342 346 345 342 342 346 355 358 357 357 355 354 353 353 354 355 354 353
298 302 315 320 322 324 321 324 328 333 327 329 334 344 345 344 345 342 343 348 351 357 357 355 355 354 353 354 356 356 355 353
296 310 319 321 324 323 322 322 327 327 327 326 332 340 342 344 344 343 343 346 349 356 357 356 355 354 354 356 356 356 356 355
301 304 312 319 326 321 321 321 323 331 321 324 328 333 340 342 343 342 343 344 345 348 351 355 355 355 356 356 356 356 356 356
303 303 309 322 323 324 322 320 331 331 321 318 325 335 337 343 341 340 342 343 342 344 346 347 348 353 355 355 356 356 356 356
301 303 309 322 319 325 329 324 324 332 328 328 331 333 332 340 338 339 340 340 340 342 342 343 345 350 354 354 354 355 354 356
308 308 310 313 318 322 322 323 322 328 330 330 331 331 328 335 335 336 335 338 339 338 340 339 346 346 346 348 348 347 348 348
311 311 315 312 316 322 316 317 324 327 328 328 328 326 326 327 336 336 336 337 338 338 338 336 341 346 345 345 346 346 345 345
312 314 311 309 317 317 318 319 328 330 333 333 329 325 324 326 329 337 337 337 337 337 337 336 343 342 343 343 344 344 344 344
312 311 308 313 310 313 318 325 329 330 330 331 330 326 324 326 329 332 336 337 337 338 338 337 341 338 341 341 342 343 343 346
308 308 307 308 311 311 320 326 326 326 325 325 330 329 326 324 326 329 330 335 338 338 339 343 341 336 339 341 341 342 343 346
304 306 305 308 307 309 318 324 323 323 322 326 330 332 328 325 326 330 330 334 339 338 340 344 342 341 341 343 341 343 344 345
300 304 307 306 300 310 315 322 321 324 325 328 330 330 328 328 329 331 334 334 341 343 341 342 342 344 343 342 339 338 343 347
298 304 304 304 300 310 312 312 314 321 326 329 330 327 327 330 331 333 336 336 338 344 342 344 344 344 344 340 339 341 340 345
296 301 303 300 302 307 311 311 310 314 314 323 326 325 328 330 332 334 338 337 338 343 344 343 348 344 342 341 342 339 343 346
300 304 300 298 299 303 306 304 306 307 313 312 317 326 328 330 333 334 339 338 339 340 345 344 347 343 341 340 341 340 344 348
300 304 299 299 297 301 303 304 304 306 306 314 314 316 326 328 333 334 337 341 338 341 346 345 345 345 343 340 340 340 340 347
297 301 301 300 296 300 304 305 306 312 315 317 319 323 329 333 333 335 336 339 341 341 348 346 345 346 342 340 339 338 339 343
303 298 291 300 288 297 303 305 306 308 311 314 316 318 322 327 328 331 334 339 342 343 344 348 346 345 341 340 337 340 339 340
Wind_Speed
5 5 7 9 12 22 27 20 15 3 10 6 4 18 6 21 19 18 15 11 13 18 17 17 17 16 15 15 14 14 13 13
3 6 5 14 18 14 8 9 10 11 8 6 9 6 15 22 20 18 13 11 15 17 17 17 17 16 15 15 14 14 13 13
5 9 7 10 21 5 8 4 3 12 7 4 7 25 25 22 19 19 13 10 12 16 16 17 17 16 15 15 12 12 11 12
7 2 9 13 9 7 3 4 2 14 10 4 6 22 18 19 20 19 16 11 10 15 15 15 16 16 15 13 13 12 11 10
13 15 10 12 17 8 7 10 5 13 7 6 6 11 15 16 18 17 16 12 8 8 12 15 14 14 14 13 11 11 10 10
14 10 0 13 20 13 21 10 3 22 9 10 9 10 12 21 18 17 14 12 8 7 6 6 8 15 14 13 12 11 10 10
12 9 9 20 11 10 3 4 3 9 13 21 15 11 10 19 17 16 14 13 10 9 7 7 6 9 12 14 13 12 11 11
10 8 8 5 16 17 3 10 10 12 16 19 18 13 10 18 17 18 17 16 14 12 11 10 10 8 6 7 5 5 5 6
18 10 7 4 5 6 11 13 16 2 5 8 10 11 10 11 19 18 20 15 17 16 14 13 10 7 5 4 4 5 8 8
19 14 6 3 9 2 2 6 25 20 15 2 7 10 11 12 15 19 19 20 19 19 16 15 10 9 9 7 7 7 9 10
16 11 5 2 3 6 9 11 21 21 19 18 12 11 9 11 11 16 19 19 20 19 16 13 13 9 10 10 9 11 10 11
11 11 6 2 5 6 9 11 18 19 22 16 8 12 8 9 10 13 14 18 20 20 15 16 13 13 11 10 11 10 9 10
7 8 6 6 7 5 10 14 15 17 17 19 16 17 13 11 9 14 10 14 20 19 15 17 15 13 10 11 11 10 10 12
9 8 7 3 8 8 7 22 19 22 19 18 18 22 13 13 12 12 12 13 18 17 16 11 10 7 5 7 6 6 8 8
11 12 8 8 8 8 11 7 8 19 18 18 20 16 13 17 18 14 16 15 18 17 17 13 9 6 5 7 6 6 5 8
8 11 15 9 10 10 16 9 7 5 9 19 19 21 20 19 20 18 18 20 19 15 18 16 8 5 3 2 3 5 7 7
7 9 7 3 2 5 5 3 8 7 5 6 11 15 15 16 19 17 15 18 18 16 17 14 10 10 9 11 5 6 6 10
9 9 4 7 4 5 6 5 4 8 5 8 7 10 10 14 17 18 20 22 21 19 18 16 13 12 9 10 6 9 4 6
8 8 7 6 8 7 9 6 11 25 24 26 24 26 26 26 18 11 10 17 18 20 19 18 17 10 5 2 1 4 8 5
4 4 1 6 4 7 17 23 25 24 24 21 24 23 26 27 30 28 25 18 19 13 14 19 18 15 20 14 13 12 11 9
Wind_Direction
163 132 161 173 184 249 272 276 303 83 38 69 94 120 112 123 131 128 123 133 141 137 137 138 138 138 135 132 133 133 132 128
169 196 230 151 192 183 288 303 354 116 59 59 134 106 128 133 136 121 118 128 141 141 140 140 140 139 138 138 139 139 138 134
285 275 142 154 188 285 172 138 72 103 112 54 91 117 132 138 133 121 121 135 140 143 143 143 143 142 143 143 142 143 144 143
297 342 139 149 140 194 27 6 155 102 113 76 134 128 141 139 127 127 129 136 144 145 148 147 148 147 147 147 147 151 151 152
283 292 119 186 166 166 198 137 213 148 116 149 138 138 142 123 125 126 130 131 137 146 155 151 149 150 150 151 157 156 162 160
282 303 118 140 158 177 154 213 304 144 155 162 180 148 141 126 130 132 130 136 148 145 146 145 155 156 155 160 163 166 171 170
277 291 339 160 131 184 271 12 328 301 142 150 154 147 142 138 142 137 143 146 153 156 161 156 150 166 163 171 174 174 182 184
269 292 322 71 112 159 163 104 27 24 112 139 152 166 170 152 153 152 153 160 160 162 170 166 163 161 161 180 174 178 185 194
281 284 300 68 68 156 140 123 115 116 59 151 166 174 174 166 162 163 166 164 167 167 175 173 160 159 170 182 183 192 199 194
277 286 307 29 149 157 43 132 145 144 139 158 238 206 186 178 166 165 168 172 172 173 173 176 160 169 177 181 191 195 205 199
271 278 249 214 288 200 142 164 150 183 169 181 180 229 204 181 174 162 172 174 173 173 176 167 169 177 180 191 192 197 196 198
263 277 299 262 216 313 182 151 159 159 184 192 193 210 217 184 180 168 165 168 167 176 175 159 173 183 189 189 196 194 193 193
274 251 254 289 288 257 160 152 172 190 197 184 194 211 198 187 174 168 170 155 164 174 175 159 183 189 189 189 193 191 187 185
286 299 257 139 255 266 207 156 182 205 194 195 204 200 188 174 169 167 158 159 166 174 180 170 169 190 182 180 172 179 173 177
265 244 227 197 235 262 284 266 182 193 204 202 203 193 190 175 174 173 168 164 168 170 179 180 171 179 193 194 186 186 180 174
242 258 233 196 213 230 244 254 251 240 190 188 191 196 187 184 179 175 171 175 173 169 177 180 174 163 193 265 237 197 202 188
308 320 41 107 124 232 258 343 343 336 248 182 181 206 193 187 183 181 176 175 178 165 176 171 172 179 193 212 207 210 192 187
310 315 346 312 349 352 355 322 315 322 338 293 330 35 327 194 182 182 183 185 182 181 173 180 184 186 195 200 211 209 209 198
261 293 332 2 350 334 304 314 349 36 45 40 35 35 24 25 26 336 227 189 190 187 177 182 188 177 159 128 183 197 213 207
306 50 266 65 288 352 38 52 36 34 30 34 31 32 37 35 32 26 10 13 350 325 202 185 179 182 185 191 201 210 205 206